THORAD DELTA 1 DEB, 42614

Orbit data source: Space-Track

THORAD DELTA 1 DEB, 42614 is space debris in SSO originally from a launch on Fri, 15 Nov 1974 UTC launched from the Air Force Western Test Range (AFWTR). Debris objects in space refer to the collection of defunct objects orbiting the Earth. Examples of debris include non-operational satellites, rocket bodies, and fragments generated from explosions, collisions, or faulty payload assembly.

Loading next visibility...
Identifier
42614, 1974-089GF
Orbit
SSO
Last TLE update
4 hours ago
Origin
Manufacturer
Unknown
Mission
Spacecraft
Bus & Motor
Unknown
Mass
Unknown
Launch date (UTC)
1974-11-15 (51 years ago)
Launch vehicle
Unknown
Launch site
Air Force Western Test Range (AFWTR)
Object type
Payload
Rocket body
Debris
Shape & HBR
Unknown
Radar Cross Section
Small (<0.1 m²)

Expand to show TLE details & history

TLE from 4 hours ago
0 THORAD DELTA 1 DEB
1 42614U 74089GF  25182.19822582  .00000331  00000-0  21765-2 0  9990
2 42614 101.8556 333.2059 0041068 131.9484  46.0012 12.59584001 17904
Epoch: 2025-07-01T04:45Z
TLE epoch observation values (Epoch: 2025-07-01T04:45:26.71Z)
Latitude
1.57772°
Longitude
162.67713°
Altitude
1,404.858 km
Speed
7.168 km/s
True Right ascension
10h 14m 08s
True Declination
1° 34' 09"
Sunlit
Object was in daylight at epoch
Visualization orbit readout
Latitude
-59.2209°
Longitude
141.991°
Altitude
1,457.963 km
Speed
7.128 km/s
Apparent Right ascension
08h 40m 55s
Apparent Declination
-50° 25' 41"
Sunlit
Object is in daylight
Visualization observer readout
Local Sidereal Time
20:32:20
Azimuth
187.442° SSW
Elevation
-79.381°
Doppler factor
1
Orbital elements
Apogee altitude
1,454.237 km
Perigee altitude
1,390.168 km
Semi-major axis
7,800.339 km
Eccentricity
0.00411
Inclination
101.8556°
RAAN
333.2059°
Arg. of periapsis
131.9484°
True anomaly
Unknown
Mean anomaly
46.0012°
Eccentric anomaly
Unknown
Mean motion
3.15045 °/min
Orbital period
114.27 mins
BSTAR
0.0021765
Loading maneuver chart data...
Loading SW <> Apogee altitude chart data...

THORAD DELTA 1 DEB Visibility forecast

Observer location: undefined°, undefined°

Span
Click to sort rows by Start time (UTC) header in descending order
Start Az.
Max El. time (UTC)
Max El. Az.
Max El.
End time (UTC)
End Az.
15 mins2025-07-01 09:38:08.295Z154.555° SSE2025-07-01 09:45:08.295Z94.035° ESE44.514°2025-07-01 09:53:08.295Z344.907° N
9 mins2025-07-01 11:34:08.295Z231.346° WSW2025-07-01 11:38:08.295Z265.004° W19.17°2025-07-01 11:43:08.295Z306.584° NW
10 mins2025-07-01 21:39:08.295Z54.073° ENE2025-07-01 21:43:08.295Z90.117° ESE21.976°2025-07-01 21:49:08.295Z142.293° SSE
14 mins2025-07-01 23:30:08.295Z10.745° NNE2025-07-01 23:36:08.295Z302.284° NW43.086°2025-07-01 23:44:08.295Z211.121° SW
7 mins2025-07-02 01:24:08.295Z336.156° NNW2025-07-02 01:27:08.295Z312.091° NW14.806°2025-07-02 01:31:08.295Z281.158° WNW
12 mins2025-07-02 08:34:08.295Z111.723° ESE2025-07-02 08:39:08.295Z65.04° ENE28.895°2025-07-02 08:46:08.295Z0.74° NNE
|